User: anonymous   Login
Location: Unspecified
(0.0000°N, 0.0000°E)
Time: 00:17:00
(UTC+00:00)
Language:

STARLINK-32677 - Orbit

View from above orbital plane
View from above orbital plane
View from above satellite
View from above satellite

Ground track
Ground track

The orbit is defined by the following mean orbital elements,

1 63020U          26145.35573126 +.00000000 +00000-0 +11618-2 0 00003
2 63020  42.9940 263.2068 0000354 344.2756  15.8085 15.27587727    09
Epoch (UTC): 25 May 2026 08:32:15
Eccentricity: 0.0000354
inclination: 42.9940°
perigee height: 483 km
apogee height: 483 km
right ascension of ascending node: 263.2068°
argument of perigee: 344.2756°
revolutions per day: 15.27587727
mean anomaly at epoch: 15.8085°

The dashed part of the orbit path shows where the satellite is in the earth's shadow,  

DLR